Dewpoint
-7 -8 -9 -8 -5 -4 -4 1 -0 0 -1 -0 -1 -1 1 0 0 0 0 0 -0 0 0 2 2 2 1 1 1 2 1 0 3 2 1 0 1 2 1 1 1 2 2 1
-11 -8 -9 -9 -7 -4 -4 0 0 -0 -2 0 -1 -0 0 0 -0 -1 0 1 -0 -0 1 2 2 2 2 1 1 1 0 1 2 1 0 1 3 2 0 -1 -0 2 1 -5
-12 -9 -8 -11 -8 -3 -1 -2 -1 -2 -1 -0 -1 -0 0 0 -0 -1 -2 -1 -1 -2 0 0 2 3 1 2 2 1 -1 0 -1 -1 -3 1 4 2 0 1 2 1 1 -1
-8 -11 -8 -10 -9 -2 -0 -4 -1 -1 -2 -1 -1 -1 -0 -0 -0 -1 -2 -2 -2 -1 -0 -1 1 1 2 2 2 0 -2 -1 -0 -0 -1 -0 1 2 2 2 1 2 -1 -0
-4 -8 -10 -8 -10 -6 -2 -3 -2 -2 -2 -2 -2 -3 -1 -1 -0 -2 -2 -2 -2 -2 -2 -3 -1 0 0 -0 1 1 -1 -1 -1 -2 -1 -1 1 0 1 2 2 1 1 2
-1 -5 -9 -9 -9 -8 -7 -5 -3 -4 -2 -3 -4 -4 -2 -2 -2 -1 -2 -3 -3 -2 -2 -2 -2 -2 -1 -1 1 0 -0 -1 -1 -2 -2 -2 -4 -3 -0 0 0 1 2 -1
2 -1 -5 -9 -9 -9 -7 -5 -2 -2 -5 -3 -3 -4 -2 -2 -1 -2 -1 -2 -4 -2 -1 -2 -2 -2 -2 -1 -1 -2 -1 -1 -1 -1 -4 -10 -13 -7 -4 -2 -2 -1 -2 -3
1 2 -1 -5 -9 -9 -9 -8 -6 -5 -7 -4 -4 -3 -3 -2 -2 -2 -3 -2 -2 -1 -3 -5 -6 -4 -1 -1 -2 -1 -3 -2 -1 -1 -1 -7 -10 -6 -5 -5 -10 -6 -3 -4
0 2 1 -0 -3 -6 -7 -8 -8 -7 -8 -10 -4 -3 -3 -4 -4 -5 -2 -1 -1 -3 -5 -5 -8 -9 -5 0 -1 -2 -2 -3 -2 -0 -0 -10 -17 -10 -6 -7 -13 -13 -6 -8
-0 1 2 2 1 -1 -4 -5 -6 -7 -7 -7 -4 -4 -3 -4 -5 -6 -4 -1 -1 -3 -4 -5 -5 -5 -7 -2 -1 1 1 -0 1 1 1 -1 -6 -7 -6 -11 -13 -10 -7 -7
-1 0 1 2 2 1 0 -1 -1 -2 -5 -6 -4 -4 -3 -3 -4 -7 -5 -4 -4 -3 -4 -5 -4 -4 -5 -5 -6 -1 -0 1 1 0 2 -3 -5 -6 -7 -12 -7 -7 -7 -6
-1 -1 -0 0 0 0 1 1 -1 -2 -2 -4 -5 -3 -2 -3 -3 -5 -3 -7 -5 -4 -5 -4 -5 -3 -4 -6 -8 -5 -4 -3 -2 -1 -2 -7 -5 -7 -7 -6 -5 -6 -6 -5
-1 -1 -2 -2 -1 -1 -1 -1 -1 -3 -4 -3 -3 -3 -3 -2 -2 -2 -3 -3 -3 -3 -3 -4 -4 -4 -5 -4 -5 -8 -7 -6 -4 -6 -6 -6 -8 -8 -5 -5 -6 -8 -7 -3
-1 -1 -2 -3 -4 -3 -1 -1 -1 -2 -2 -2 -3 -2 -1 -2 -2 -3 -2 -2 -2 -1 -1 -3 -3 -3 -5 -5 -6 -6 -8 -6 -6 -6 -8 -6 -8 -5 -6 -7 -10 -10 -9 -5
-2 -1 -2 -2 -3 -6 -1 -0 -2 -2 -1 -2 -2 -2 -2 -2 -2 -2 -2 -2 -1 -1 -2 -2 -1 -2 -3 -2 -3 -2 -6 -7 -6 -5 -7 -4 -4 -8 -8 -10 -9 -9 -7 -8
-2 -1 -2 -3 -4 -7 -2 0 -3 -4 1 -2 -2 -3 -2 -2 -3 -3 -2 -2 -1 -2 -2 -2 -2 -2 -2 -2 -1 -3 -4 -5 -4 -4 -3 -6 -10 -10 -10 -9 -8 -8 -8 -7
-1 -1 -2 -4 -6 -3 -2 -0 -1 -0 -0 -1 -1 -2 -2 -2 -2 -2 -2 -1 -1 -1 -2 -1 -1 -1 -0 -2 -0 -3 -2 -3 -5 -7 -10 -11 -10 -9 -8 -8 -9 -10 -9 -8
-1 -2 -4 -5 -4 -1 -3 -2 -1 -1 -1 -1 -5 -4 -2 -2 -2 -2 -2 -1 -1 -1 -1 -1 -1 -1 -1 -0 -2 -2 -3 -8 -9 -10 -10 -8 -7 -7 -7 -8 -8 -8 -8 -9
-1 -4 -5 -6 -2 -2 -2 -2 -1 -1 -3 -2 -2 -2 -4 -2 -2 -2 -2 -2 -3 -2 -2 -2 -2 -2 -1 -2 -2 -3 -6 -9 -8 -7 -6 -6 -7 -7 -7 -7 -8 -9 -9 -8
-1 -2 -5 -2 -1 -2 -1 -1 -1 -1 -1 -1 -2 -1 -2 -3 -2 -2 -2 -2 -2 -4 -3 -2 -2 -1 -2 -3 -3 -6 -9 -8 -7 -6 -7 -7 -7 -7 -8 -8 -10 -11 -12 -13
-3 -4 -4 -2 -1 -1 -1 -1 -2 -2 -2 -2 -2 -2 -2 -3 -3 -3 -2 -3 -3 -1 -4 -1 -1 -1 -3 -5 -9 -8 -7 -7 -8 -10 -9 -9 -8 -8 -8 -10 -10 -10 -11 -12
-3 -4 -1 -0 -1 -1 -3 -5 -2 -2 -3 -2 -2 -2 -2 -2 -3 -2 -2 -3 -2 -1 -4 -1 -2 -4 -4 -7 -7 -7 -9 -9 -8 -7 -7 -7 -9 -11 -10 -10 -9 -9 -9 -11
-1 -1 -1 -2 -2 -2 -2 -6 -3 -2 -3 -3 -2 -3 -2 -2 -3 -3 -3 -1 -2 -4 -2 -2 -4 -5 -5 -6 -7 -7 -6 -6 -6 -8 -13 -13 -13 -14 -13 -12 -13 -10 -10 -10
-1 -2 -1 -3 -3 -5 -5 -6 -6 -4 -3 -3 -2 -3 -3 -3 -4 -4 -4 -3 -4 -2 -2 -3 -5 -6 -6 -7 -8 -8 -8 -10 -10 -10 -10 -10 -10 -9 -9 -11 -12 -11 -12 -12
-2 -2 -2 -3 -5 -4 -4 -2 -2 -2 -2 -2 -3 -3 -3 -4 -3 -4 -3 -2 -1 -2 -4 -5 -6 -7 -7 -8 -8 -10 -12 -13 -14 -14 -12 -13 -12 -9 -9 -11 -13 -15 -13 -12
-3 -3 -4 -4 -4 -4 -3 -3 -4 -2 -2 -2 -3 -5 -6 -3 -3 -2 -2 -3 -3 -5 -6 -6 -7 -9 -9 -10 -13 -14 -14 -13 -13 -13 -12 -12 -11 -10 -10 -10 -12 -15 -12 -12
-3 -4 -3 -4 -3 -3 -3 -4 -3 -2 -2 -2 -3 -3 -3 -6 -3 -3 -5 -4 -5 -6 -6 -7 -10 -10 -12 -14 -16 -15 -14 -15 -14 -14 -13 -13 -14 -13 -12 -12 -13 -13 -10 -11
Wind_Speed
12 13 14 13 10 6 6 4 2 9 8 6 4 2 2 2 1 2 1 2 3 4 4 3 2 4 2 2 4 3 1 4 3 2 1 2 2 4 4 3 3 1 1 6
13 12 12 13 11 6 5 3 2 7 6 4 2 3 3 3 3 2 0 2 1 1 2 3 2 2 2 3 2 5 4 1 3 5 3 2 3 4 3 4 2 5 4 5
15 14 11 11 9 5 4 2 2 4 4 5 6 4 2 3 4 2 2 2 3 3 3 4 3 2 3 2 3 5 2 2 4 5 3 4 4 5 5 5 3 3 6 7
16 16 13 9 7 4 4 3 1 2 1 2 1 1 5 3 1 2 4 3 3 2 2 2 2 2 1 4 2 3 3 1 1 4 5 2 3 4 8 9 6 7 4 7
15 16 15 12 6 3 2 2 2 2 2 1 1 2 2 5 3 5 1 4 2 1 4 4 5 5 3 2 2 2 2 2 2 3 2 4 5 8 9 11 8 12 13 23
13 15 15 14 8 3 1 1 1 0 0 1 2 2 2 3 3 1 1 3 4 2 3 4 5 4 6 7 6 3 2 3 2 4 3 5 6 7 12 5 5 9 9 11
11 12 13 13 11 6 2 2 1 1 2 2 3 2 2 0 2 1 1 2 2 4 7 9 8 9 8 7 7 3 4 3 2 3 4 2 4 2 5 9 5 11 8 10
9 10 11 11 11 8 6 1 2 1 1 2 2 4 4 4 1 2 1 1 3 6 2 3 3 4 2 4 4 1 3 3 2 1 2 7 1 1 4 3 3 4 6 9
6 7 8 9 10 8 6 6 3 2 2 4 1 4 5 3 3 2 2 3 4 3 3 2 3 4 2 2 1 5 4 4 4 2 1 2 4 2 4 3 1 1 5 7
5 5 6 8 8 8 6 6 6 2 1 1 5 2 3 4 3 3 2 4 3 3 2 2 3 2 3 3 6 4 2 1 4 3 3 7 6 4 3 0 3 5 10 15
5 4 5 6 7 8 8 6 8 6 3 3 6 5 3 3 4 3 6 4 1 2 2 3 3 3 4 2 4 5 6 7 4 4 2 5 6 4 1 1 10 19 22 20
5 4 4 5 6 8 8 8 10 9 4 2 4 7 7 6 4 3 6 1 3 5 3 1 2 2 1 4 2 1 3 5 4 8 5 2 6 3 5 10 20 18 21 29
7 6 5 6 7 7 8 9 10 8 2 2 3 5 9 9 9 8 3 3 5 5 5 6 2 3 3 3 5 2 4 5 2 1 2 5 15 4 9 21 19 22 24 24
9 7 6 6 7 7 8 8 8 5 3 1 1 3 4 5 8 11 13 7 3 3 5 3 3 3 5 3 2 3 2 6 3 4 5 8 5 13 26 21 23 25 25 22
10 8 6 7 8 7 6 8 2 3 5 1 2 4 6 7 8 8 7 9 9 5 2 1 3 3 3 1 0 4 7 4 4 3 2 2 18 22 17 23 27 25 25 27
12 9 8 7 7 7 5 2 1 1 10 3 1 2 2 2 2 4 6 9 8 6 4 3 3 3 3 3 3 3 6 4 2 4 10 12 11 8 14 18 20 23 23 20
12 10 9 7 7 5 3 3 3 8 9 3 2 1 2 3 3 3 5 9 5 5 4 3 2 3 4 2 3 3 7 4 4 2 6 3 10 12 16 18 20 21 21 21
13 11 10 8 6 7 8 9 9 6 4 4 1 3 1 5 3 2 3 4 5 4 3 3 3 2 2 4 7 7 2 3 9 5 4 6 9 13 18 21 24 25 26 26
13 11 8 5 5 4 3 3 3 4 6 3 3 3 3 5 3 3 3 3 1 1 1 2 2 2 5 5 7 6 3 6 5 5 5 8 14 17 19 22 25 27 29 28
15 13 6 4 4 4 4 2 1 1 3 4 3 3 3 4 4 2 3 1 1 1 1 2 2 4 13 12 8 2 6 6 4 6 10 14 17 19 20 20 20 23 26 29
17 9 7 6 6 3 1 1 0 1 2 4 3 7 3 6 3 3 3 2 1 1 3 2 2 3 3 7 13 10 7 7 7 10 12 14 18 22 25 27 26 26 27 29
14 11 10 8 5 3 3 2 1 3 3 4 4 5 6 3 3 3 2 2 1 4 2 2 3 3 5 11 11 9 6 7 9 13 16 19 22 24 26 28 30 31 31 32
19 7 7 6 3 2 6 7 4 3 5 6 5 3 5 3 3 4 2 3 3 2 2 3 4 1 9 13 9 4 10 8 11 15 22 25 27 27 27 29 29 32 34 34
6 8 5 5 4 4 4 4 4 4 3 7 8 4 3 3 3 3 3 1 2 3 3 5 3 8 10 3 7 11 14 18 19 25 26 27 28 27 27 29 31 34 38 40
6 6 4 4 4 4 8 7 4 3 4 9 6 3 3 1 2 2 2 3 3 4 4 3 14 5 8 10 15 21 24 27 30 29 29 31 32 33 36 36 36 37 39 40
4 4 4 4 4 4 5 6 3 3 9 6 2 3 2 2 1 4 5 3 5 4 3 12 4 16 22 22 28 31 32 32 31 31 31 34 35 37 39 41 41 41 38 38
5 2 5 8 5 4 4 7 6 10 9 2 3 2 6 3 2 3 3 5 3 2 5 10 23 25 26 34 35 36 36 34 33 33 35 36 37 39 40 42 43 44 42 38
Wind_Direction
349 351 357 1 351 329 354 2 41 5 29 49 45 39 0 355 115 170 278 6 91 140 165 127 163 174 220 175 155 93 102 118 141 186 338 164 163 172 153 126 205 110 115 273
356 352 351 355 355 345 326 356 32 21 65 92 351 319 26 50 29 19 162 104 74 127 117 108 120 116 19 139 91 156 186 58 83 355 2 8 209 197 138 104 91 198 153 260
9 359 356 353 358 3 2 357 31 42 58 98 136 135 15 36 17 52 49 65 50 68 53 25 131 108 36 62 83 82 92 117 164 180 191 134 193 183 178 145 145 186 237 290
10 10 1 3 4 31 8 3 68 86 287 4 58 121 153 139 68 31 29 47 69 113 103 66 94 89 68 39 79 55 85 183 66 266 248 251 229 181 183 203 191 198 235 231
16 13 8 7 7 351 357 325 149 109 87 74 259 353 228 163 188 162 179 127 174 95 143 170 187 142 178 184 37 79 8 170 131 280 53 192 252 222 213 220 236 261 274 285
12 17 14 10 10 357 332 334 154 147 93 81 96 248 194 217 147 185 72 150 129 135 154 125 97 102 120 154 148 131 86 121 62 277 358 310 299 228 194 186 205 213 226 243
7 12 18 18 16 13 337 284 219 223 252 164 200 154 114 97 336 9 64 120 108 137 125 108 97 80 81 81 47 74 132 101 72 269 350 16 248 161 180 201 227 216 269 277
353 5 10 18 24 23 24 353 241 232 246 228 232 183 143 127 68 51 75 128 118 145 127 60 51 4 76 45 42 52 75 108 78 101 247 291 9 165 141 170 341 207 227 271
335 349 4 11 18 20 25 28 13 292 133 251 170 162 184 166 163 39 140 138 162 171 88 96 166 206 178 184 51 47 62 69 117 157 278 244 222 222 196 174 285 69 183 272
309 327 344 2 9 12 9 15 19 358 229 208 179 178 192 160 137 134 163 166 162 169 99 144 176 237 159 171 174 174 124 77 185 199 266 285 249 227 143 23 228 327 318 325
287 301 325 339 353 2 4 353 357 351 294 236 215 211 201 169 181 151 156 108 194 72 135 162 204 166 216 183 186 181 172 154 192 161 208 284 191 112 241 260 334 327 315 310
264 277 294 315 331 339 345 344 341 334 268 251 219 225 229 227 205 186 176 195 168 166 100 197 107 191 136 173 244 10 240 193 179 190 212 272 175 280 302 341 320 318 309 314
246 262 279 294 303 316 329 338 339 337 299 267 228 227 230 229 226 220 217 222 193 184 173 153 160 237 137 186 248 240 236 178 221 11 172 224 276 216 340 338 329 325 320 319
239 252 272 298 302 300 315 331 337 349 307 289 238 211 208 212 225 230 227 230 212 176 181 161 151 182 187 219 228 211 224 147 176 266 298 329 147 331 331 331 330 335 333 329
234 248 269 291 311 317 311 319 304 41 27 272 270 268 258 247 235 227 223 219 203 180 170 121 230 174 143 169 124 243 183 186 159 236 254 303 298 327 338 336 339 339 338 333
228 240 267 285 305 318 335 308 251 273 8 335 354 255 234 238 216 195 194 204 200 193 195 223 243 221 192 168 226 267 172 136 193 227 294 298 321 342 350 338 346 351 350 344
226 233 249 269 286 286 274 251 252 292 321 281 301 302 191 179 167 144 144 167 175 177 192 210 203 223 230 225 229 156 115 200 263 290 349 39 13 346 359 358 0 3 6 6
225 234 243 260 267 278 275 271 272 262 262 243 114 270 205 192 181 153 156 163 166 177 187 191 195 187 226 254 235 205 229 95 113 68 50 22 4 3 0 358 354 356 359 357
220 226 235 250 256 228 247 279 274 230 217 207 172 186 227 162 136 129 138 159 91 172 181 245 166 208 223 234 190 166 126 133 115 83 51 12 359 356 356 355 354 349 346 346
209 206 195 191 206 201 270 282 201 219 232 222 211 176 209 170 159 133 125 111 145 144 219 147 220 260 259 245 234 149 126 110 78 28 10 354 351 351 351 351 349 344 340 335
179 176 189 176 154 163 206 242 197 122 269 218 211 198 199 188 137 161 191 171 172 217 241 188 228 257 246 137 135 126 103 70 36 18 6 358 350 345 340 338 336 334 331 329
181 164 136 145 170 133 98 225 248 207 228 202 178 203 204 179 166 119 166 144 152 228 158 222 249 248 180 137 124 108 59 16 358 353 350 347 343 338 330 326 322 320 319 320
148 142 159 165 145 162 188 190 203 205 188 190 172 179 171 154 166 92 113 168 212 125 202 240 237 272 153 118 114 46 9 334 332 334 330 327 327 326 321 315 314 312 311 312
147 168 161 193 178 215 193 182 172 165 172 178 169 146 179 160 133 142 117 129 144 217 236 235 237 160 140 8 346 325 320 324 317 319 328 331 332 325 322 322 319 316 312 312
151 156 187 194 198 148 165 158 136 130 162 156 152 124 172 132 118 163 109 172 235 231 233 226 142 83 0 341 331 328 327 330 329 330 326 326 327 323 318 321 319 317 315 315
133 152 120 145 132 150 177 188 175 159 152 151 147 113 68 248 165 176 198 191 222 242 217 162 341 334 333 331 328 326 326 327 327 327 327 326 325 321 316 312 312 312 315 314
158 141 159 157 119 130 153 188 187 174 158 175 135 140 216 125 195 233 209 212 222 198 162 304 316 320 319 320 317 320 321 318 316 317 319 318 315 311 308 306 309 311 313 310
Height
1512 1510 1508 1506 1504 1502 1501 1499 1500 1499 1498 1499 1507 1514 1509 1507 1508 1508 1508 1507 1508 1513 1516 1518 1519 1520 1519 1518 1519 1522 1524 1534 1546 1538 1538 1538 1539 1542 1546 1547 1556 1562 1560 1531
1512 1509 1508 1506 1504 1502 1502 1501 1500 1500 1498 1512 1517 1510 1509 1509 1508 1509 1509 1509 1510 1511 1513 1517 1519 1519 1519 1519 1519 1522 1523 1534 1549 1543 1542 1540 1540 1541 1543 1548 1552 1556 1552 1520
1512 1510 1507 1505 1503 1502 1503 1502 1504 1502 1501 1503 1505 1509 1512 1511 1510 1510 1509 1510 1509 1510 1513 1516 1519 1520 1521 1521 1521 1522 1523 1532 1530 1533 1526 1532 1537 1537 1540 1539 1552 1547 1539 1524
1512 1510 1507 1505 1504 1503 1504 1503 1505 1505 1510 1506 1506 1506 1506 1509 1511 1511 1510 1512 1513 1513 1516 1517 1521 1521 1522 1522 1522 1523 1525 1530 1537 1532 1531 1530 1529 1530 1537 1536 1532 1532 1522 1525
1513 1510 1508 1505 1503 1503 1504 1505 1504 1505 1506 1507 1508 1508 1508 1508 1508 1508 1510 1512 1514 1514 1516 1515 1520 1520 1523 1522 1525 1526 1528 1533 1535 1542 1530 1534 1533 1530 1530 1530 1528 1529 1524 1514
1514 1511 1509 1506 1504 1504 1504 1504 1504 1504 1508 1508 1509 1509 1508 1508 1508 1510 1510 1510 1512 1513 1515 1516 1517 1517 1518 1519 1523 1527 1530 1534 1538 1533 1534 1531 1526 1519 1520 1520 1519 1516 1523 1504
1514 1512 1510 1507 1505 1504 1504 1503 1504 1504 1507 1509 1508 1506 1507 1509 1510 1510 1510 1511 1511 1515 1515 1516 1517 1519 1522 1523 1524 1525 1530 1533 1540 1545 1533 1530 1504 1508 1509 1510 1509 1510 1507 1503
1514 1513 1511 1508 1507 1505 1504 1503 1504 1503 1505 1505 1506 1506 1506 1507 1509 1511 1511 1511 1512 1513 1515 1519 1522 1525 1522 1527 1528 1526 1527 1532 1543 1548 1546 1520 1502 1505 1508 1507 1503 1503 1506 1502
1514 1512 1511 1509 1507 1506 1505 1503 1503 1503 1504 1504 1503 1504 1505 1507 1508 1510 1510 1511 1512 1513 1515 1519 1518 1521 1520 1527 1528 1529 1529 1530 1537 1545 1533 1507 1501 1501 1502 1503 1506 1501 1501 1500
1512 1512 1511 1510 1508 1507 1506 1504 1502 1502 1502 1502 1503 1503 1505 1504 1506 1508 1509 1510 1512 1513 1517 1518 1522 1526 1521 1523 1527 1531 1533 1536 1537 1539 1538 1519 1501 1500 1502 1502 1505 1498 1497 1495
1511 1510 1510 1509 1508 1507 1506 1505 1504 1503 1501 1500 1501 1502 1502 1502 1504 1506 1507 1510 1510 1514 1516 1519 1520 1521 1523 1521 1521 1524 1526 1532 1534 1534 1535 1522 1496 1499 1500 1501 1497 1495 1493 1490
1509 1508 1508 1508 1508 1506 1505 1505 1503 1501 1500 1500 1500 1500 1501 1502 1503 1504 1505 1506 1505 1507 1514 1518 1519 1517 1524 1520 1513 1517 1518 1509 1514 1515 1507 1496 1496 1496 1498 1498 1496 1492 1489 1485
1506 1506 1506 1506 1506 1505 1504 1502 1501 1499 1498 1498 1498 1498 1499 1500 1502 1503 1505 1504 1504 1503 1504 1507 1513 1515 1516 1518 1517 1510 1504 1502 1506 1504 1500 1496 1493 1494 1495 1493 1490 1487 1484 1479
1503 1504 1504 1504 1504 1503 1502 1500 1500 1499 1499 1498 1498 1497 1497 1497 1498 1500 1501 1502 1504 1505 1505 1505 1506 1509 1508 1510 1508 1508 1500 1501 1502 1502 1494 1491 1492 1493 1491 1487 1485 1480 1475 1472
1500 1501 1502 1502 1502 1501 1500 1499 1498 1498 1500 1498 1497 1497 1496 1496 1496 1497 1498 1500 1502 1504 1505 1506 1507 1504 1505 1506 1507 1503 1494 1496 1500 1501 1497 1497 1493 1491 1488 1485 1480 1477 1472 1464
1496 1497 1498 1499 1499 1499 1499 1498 1499 1498 1497 1496 1496 1496 1494 1495 1495 1494 1495 1498 1500 1502 1503 1504 1503 1502 1503 1505 1502 1488 1490 1492 1491 1492 1492 1491 1489 1487 1485 1482 1479 1476 1471 1467
1493 1493 1493 1494 1496 1497 1498 1498 1498 1497 1498 1496 1494 1493 1494 1494 1495 1496 1495 1495 1498 1500 1501 1501 1501 1502 1503 1501 1498 1487 1487 1487 1487 1487 1488 1489 1488 1487 1485 1481 1476 1471 1468 1465
1489 1490 1490 1490 1491 1495 1495 1494 1494 1494 1495 1496 1496 1492 1493 1494 1493 1495 1496 1496 1496 1498 1498 1500 1500 1501 1500 1496 1484 1483 1483 1484 1485 1487 1487 1487 1486 1484 1483 1480 1474 1469 1465 1461
1484 1487 1488 1487 1488 1490 1491 1491 1492 1492 1496 1491 1492 1493 1496 1492 1493 1494 1496 1496 1499 1499 1499 1500 1501 1498 1494 1482 1482 1482 1483 1483 1484 1485 1486 1486 1485 1482 1479 1475 1472 1469 1465 1461
1480 1484 1486 1485 1485 1486 1491 1490 1489 1490 1492 1490 1488 1490 1490 1491 1492 1494 1496 1497 1498 1502 1499 1499 1499 1491 1481 1480 1480 1482 1483 1483 1483 1483 1482 1481 1481 1478 1475 1472 1469 1467 1464 1460
1475 1478 1481 1483 1484 1486 1488 1489 1489 1488 1490 1488 1487 1487 1488 1490 1489 1492 1494 1496 1497 1496 1498 1495 1491 1485 1476 1476 1479 1482 1483 1485 1484 1482 1480 1477 1474 1472 1470 1467 1464 1460 1458 1454
1469 1474 1478 1482 1484 1485 1488 1489 1489 1488 1486 1486 1485 1486 1487 1488 1488 1488 1494 1494 1496 1495 1496 1495 1488 1477 1475 1476 1478 1480 1481 1482 1481 1480 1478 1475 1472 1470 1467 1464 1460 1457 1453 1448
1465 1471 1475 1477 1482 1485 1484 1488 1482 1481 1480 1481 1483 1485 1486 1486 1487 1489 1492 1493 1494 1496 1494 1487 1481 1473 1476 1478 1480 1480 1481 1480 1478 1477 1474 1471 1467 1464 1461 1457 1454 1449 1444 1440
1462 1465 1471 1470 1474 1474 1473 1474 1472 1475 1477 1479 1481 1483 1485 1485 1485 1486 1492 1493 1494 1493 1489 1484 1472 1471 1474 1476 1477 1477 1476 1474 1472 1470 1466 1462 1458 1454 1453 1450 1444 1440 1434 1429
1456 1459 1461 1465 1463 1463 1467 1469 1471 1473 1474 1477 1481 1482 1483 1484 1485 1485 1488 1490 1487 1483 1479 1469 1467 1471 1472 1471 1471 1471 1469 1466 1463 1461 1457 1453 1450 1446 1441 1438 1434 1431 1426 1422
1453 1455 1457 1461 1462 1464 1466 1469 1471 1472 1474 1477 1479 1480 1485 1484 1481 1481 1478 1481 1478 1470 1465 1465 1467 1467 1466 1466 1465 1462 1459 1457 1454 1452 1450 1446 1442 1438 1432 1428 1426 1422 1418 1412
1453 1454 1454 1456 1458 1461 1463 1466 1469 1470 1474 1477 1477 1479 1479 1484 1482 1481 1477 1474 1464 1460 1462 1463 1463 1461 1459 1459 1456 1454 1451 1448 1446 1444 1442 1438 1434 1430 1425 1417 1413 1412 1408 1402